Regional Weather Roundup
Issued by NWS

Home | Current Version | Previous Version | Graphics & Text | Print | Product List | Glossary Off
Versions: 1 2 3 4 5 6 7 8 9 10 11 12 13 14 15 16 17 18 19 20 21 22 23 24 25 26 27 28 29 30 31 32 33 34 35 36 37 38 39 40 41 42 43 44 45 46 47 48 49 50

000
ASUS43 KTOP 061359
RWRKS

WEATHER ROUNDUP FOR KANSAS
NATIONAL WEATHER SERVICE GOODLAND KS
800 AM CST SAT FEB 06 2016

NOTE:  "FAIR" INDICATES FEW OR NO CLOUDS BELOW 12,000 FEET WITH NO
SIGNIFICANT WEATHER AND/OR OBSTRUCTIONS TO VISIBILITY.

KSZ001>006-013>018-027>032-041>047-061500-
NORTHWEST KANSAS

CITY           SKY/WX    TMP DP  RH WIND       PRES   REMARKS
GOODLAND       CLOUDY    19  10  68 SW13      30.24R WCI   6
HAYS           CLOUDY    16   3  57 W6        30.30R
HILL CITY      CLOUDY    16   9  74 W7        30.29S
RUSSELL        CLEAR     18  15  88 W6        30.29S
$$

KSZ061>065-074>080-084>089-061500-
SOUTHWEST KANSAS

CITY           SKY/WX    TMP DP  RH WIND       PRES   REMARKS
DODGE CITY     CLEAR     20  14  77 W13       30.31R WCI   7
ELKHART          N/A     23  11  60 W9          N/A
GARDEN CITY    CLEAR     18  13  80 W9        30.31R
GREAT BEND     CLEAR     19  10  68 W6        30.32S
LIBERAL        CLOUDY    19  12  73 NW9       30.33R
$$

KSZ066>073-081>083-090>101-061500-
SOUTHEAST KANSAS

CITY           SKY/WX    TMP DP  RH WIND       PRES   REMARKS
CHANUTE        CLEAR     28  23  81 NW6       30.33R
COFFEYVILLE    CLOUDY    36  28  73 NW5       30.34R
HUTCHINSON     CLEAR     24  20  84 NW7       30.33R
MEDICINE LODGE   N/A     22  20  92 NW6       30.34R
NEWTON         CLEAR     27  19  74 W5        30.32S
PARSONS        CLEAR     30  25  81 MISG      30.33R
WICHITA INTL   CLEAR     25  21  85 CALM      30.32S
WICHITA JABRA  CLEAR     27  25  92 W7        30.31S
WINFIELD       CLEAR     28  25  88 CALM      30.34R
$$

KSZ007>012-019>026-033>040-048>060-102>105-061500-
NORTHEAST KANSAS

CITY           SKY/WX    TMP DP  RH WIND       PRES   REMARKS
CONCORDIA      CLEAR     24  21  88 SW6       30.29S
EMPORIA        CLEAR     25  23  92 W3        30.30R
LAWRENCE       CLEAR     25  22  88 NW7       30.31R
MANHATTAN      PTCLDY    22  20  92 CALM      30.31R
OLATHE IND     CLEAR     26  24  92 W3        30.31R
OLATHE EXE     CLEAR     28  22  78 NW5       30.30R
SALINA         CLEAR     24  20  84 SW5       30.33R
TOPEKA BILLARD CLEAR     28  24  85 CALM      30.31S
TOPEKA FORBES  CLEAR     27  24  89 CALM      30.29S
$$



USA.gov is the U.S. government's official web portal to all federal, state and local government web resources and services.